Waco, TX

5:18 PM CDT on April 28, 2017 (GMT -0500)
Waco Regional

Weather History for KACT - December, 2012

Change the Weather History Date:

Tuesday, December 25, 2012

  Actual Average Record
Temperature  
Mean Temperature 41 °F 47 °F  
Max Temperature 52 °F 58 °F 79 °F (2016)
Min Temperature 29 °F 36 °F 7 °F (1983)
Degree Days  
Heating Degree Days 24 18  
Month to date heating degree days 249 412  
Since 1 July heating degree days 575 740  
Cooling Degree Days 0 0  
Month to date cooling degree days 29 0  
Year to date cooling degree days 3241 2792  
Moisture  
Dew Point 35 °F    
Average Humidity 67    
Maximum Humidity 89    
Minimum Humidity 44    
Precipitation  
Precipitation 0.32 in 0.09 in 1.40 in (2000)
Month to date precipitation 0.64 2.25  
Year to date precipitation 32.17 34.19  
Snow  
Snow 0.00 in 0.00 in T in (1975)
Month to date snowfall 0.0 0.0  
Since 1 July snowfall 0.0 0.1  
Snow Depth 0.00 in    
Sea Level Pressure  
Sea Level Pressure 29.80 in    
Wind  
Wind Speed 17 mph (NNW)    
Max Wind Speed 32 mph    
Max Gust Speed 44 mph    
Visibility 6 miles    
Events Rain , Thunderstorm    
T = Trace of Precipitation, MM = Missing Value Source: NWS Daily Summary

Daily Weather History Graph

Daily Weather History Graph

Search for Another Location

Airport or City:

Trip Planner

Search our weather history database for the weather conditions in past years. The results will help you decide how hot, cold, wet, or windy it might be!

Date:

Astronomy

Dec. 25, 2012 Rise Set
Actual Time 7:26 AM CST 5:32 PM CST
Civil Twilight 6:59 AM CST 5:59 PM CST
Nautical Twilight 6:29 AM CST 6:29 PM CST
Astronomical Twilight 5:59 AM CST 6:59 PM CST
Moon 3:39 PM CST (12/25) 5:02 AM CST (12/25)
Length of Visible Light 10h 59m
Length of Day
10h 05m
Waxing Gibbous, 94% of the Moon is Illuminated
Dec 25
Waxing Gibbous
Dec 28
Full
Jan 4
Last Quarter
Jan 11
New
Jan 18
First Quarter

Hourly Weather History & Observations

Time (CST) Temp. Windchill Dew Point Humidity Pressure Visibility Wind Dir Wind Speed Gust Speed Precip Events Conditions
12:51 AM 50.0 °F - 30.9 °F 48% 29.75 in 7.0 mi ENE 3.5 mph - N/A   Overcast
1:51 AM 51.1 °F - 30.9 °F 46% 29.73 in 7.0 mi North 5.8 mph - N/A   Overcast
2:37 AM 50.0 °F - 32.0 °F 50% 29.67 in 7.0 mi ESE 5.8 mph - N/A   Scattered Clouds
2:51 AM 48.9 °F - 32.0 °F 52% 29.62 in 7.0 mi ESE 9.2 mph - N/A   Clear
3:29 AM 51.8 °F - 32.0 °F 47% 29.68 in 8.0 mi NW 11.5 mph 21.9 mph N/A   Mostly Cloudy
3:51 AM 51.1 °F - 32.0 °F 48% 29.65 in 8.0 mi North 10.4 mph - N/A   Overcast
4:46 AM 51.8 °F - 33.8 °F 50% 29.67 in 8.0 mi NNW 9.2 mph - 0.00 in Thunderstorm Overcast
4:51 AM 51.1 °F - 34.0 °F 52% 29.65 in 8.0 mi North 11.5 mph - 0.00 in Thunderstorm Overcast
5:06 AM 50.0 °F - 35.6 °F 58% 29.64 in 8.0 mi North 9.2 mph - N/A   Overcast
5:39 AM 50.0 °F - 35.6 °F 58% 29.61 in 8.0 mi North 9.2 mph - N/A Thunderstorm Overcast
5:51 AM 50.0 °F - 37.0 °F 61% 29.59 in 8.0 mi NE 9.2 mph - 0.00 in Thunderstorm Thunderstorm
6:51 AM 46.0 °F 40.6 °F 41.0 °F 83% 29.55 in 5.0 mi NE 11.5 mph - 0.04 in Rain , Thunderstorm Light Rain
7:09 AM 46.4 °F 41.9 °F 42.8 °F 87% 29.53 in 5.0 mi NNE 9.2 mph - 0.02 in Rain , Thunderstorm Light Rain
7:28 AM 44.6 °F 37.4 °F 42.8 °F 93% 29.60 in 2.5 mi NW 16.1 mph 26.5 mph 0.02 in Rain , Thunderstorm Light Thunderstorms and Rain
7:31 AM 44.6 °F 36.1 °F 42.8 °F 93% 29.63 in 2.5 mi WNW 21.9 mph 34.5 mph 0.03 in Rain , Thunderstorm Light Thunderstorms and Rain
7:46 AM 44.6 °F 35.9 °F 42.8 °F 93% 29.61 in 1.0 mi NW 23.0 mph 35.7 mph 0.05 in Rain , Thunderstorm Thunderstorms and Rain
7:51 AM 45.0 °F 37.1 °F 42.1 °F 90% 29.62 in 1.0 mi NW 19.6 mph 31.1 mph 0.06 in Rain , Thunderstorm Light Thunderstorms and Rain
8:27 AM 46.4 °F 41.1 °F 44.6 °F 93% 29.67 in 2.0 mi North 11.5 mph - 0.17 in Rain , Thunderstorm Light Thunderstorms and Rain
8:41 AM 46.4 °F 41.5 °F 44.6 °F 93% 29.67 in 2.0 mi North 10.4 mph - 0.17 in Rain Light Rain
8:51 AM 46.9 °F - 45.0 °F 93% 29.67 in 1.8 mi North 11.5 mph - 0.18 in Rain Light Rain
9:01 AM 46.4 °F 40.7 °F 44.6 °F 93% 29.69 in 2.0 mi NW 12.7 mph - 0.00 in Rain Light Rain
9:20 AM 48.2 °F - 46.4 °F 93% 29.68 in 1.2 mi North 10.4 mph - 0.02 in Rain Rain
9:28 AM 48.2 °F - 46.4 °F 93% 29.70 in 2.0 mi NNW 6.9 mph - 0.03 in Rain Light Rain
9:37 AM 48.2 °F - 46.4 °F 93% 29.70 in 2.5 mi NNW 8.1 mph - 0.03 in   Overcast
9:51 AM 48.9 °F - 46.9 °F 93% 29.69 in 2.0 mi North 10.4 mph - 0.03 in   Overcast
10:11 AM 50.0 °F - 46.4 °F 87% 29.70 in 3.0 mi North 8.1 mph - N/A   Overcast
10:51 AM 51.1 °F - 48.0 °F 89% 29.74 in 5.0 mi NW 10.4 mph - N/A   Overcast
11:51 AM 50.0 °F - 46.9 °F 89% 29.77 in 7.0 mi NW 15.0 mph - 0.01 in   Overcast
12:05 PM 50.0 °F - 46.4 °F 87% 29.77 in 8.0 mi WNW 19.6 mph 24.2 mph N/A   Overcast
12:51 PM 46.0 °F 37.8 °F 42.1 °F 86% 29.79 in 3.0 mi WNW 23.0 mph 34.5 mph N/A   Overcast
1:51 PM 39.0 °F 28.0 °F 35.1 °F 86% 29.83 in 3.0 mi WNW 25.3 mph 34.5 mph N/A   Overcast
2:46 PM 33.8 °F 21.6 °F 28.4 °F 81% 29.88 in 6.0 mi WNW 23.0 mph 34.5 mph N/A   Haze
2:51 PM 34.0 °F 22.4 °F 28.0 °F 79% 29.89 in 6.0 mi NW 20.7 mph 34.5 mph N/A   Haze
3:51 PM 33.1 °F 19.8 °F 25.0 °F 72% 29.93 in 9.0 mi NW 26.5 mph 34.5 mph N/A   Overcast
4:51 PM 32.0 °F 18.6 °F 23.0 °F 69% 29.97 in 9.0 mi NW 25.3 mph 39.1 mph N/A   Overcast
5:51 PM 30.9 °F 17.5 °F 23.0 °F 72% 30.01 in 10.0 mi NW 24.2 mph 39.1 mph N/A   Overcast
6:34 PM 30.2 °F 16.2 °F 21.2 °F 69% 30.03 in 9.0 mi NW 25.3 mph 36.8 mph N/A   Overcast
6:51 PM 30.0 °F 16.6 °F 21.9 °F 72% 30.05 in 10.0 mi NW 23.0 mph 29.9 mph N/A   Overcast
7:48 PM 30.2 °F 16.2 °F 21.2 °F 69% 30.08 in 10.0 mi NW 25.3 mph 38.0 mph N/A   Overcast
7:51 PM 30.0 °F 15.4 °F 21.0 °F 69% 30.09 in 10.0 mi NW 27.6 mph 38.0 mph N/A   Overcast
8:38 PM 30.2 °F 17.4 °F 21.2 °F 69% 30.09 in 10.0 mi NW 20.7 mph 36.8 mph N/A   Overcast
8:51 PM 30.0 °F 16.0 °F 21.0 °F 69% 30.11 in 10.0 mi NW 25.3 mph 33.4 mph N/A   Overcast
9:51 PM 30.0 °F 16.0 °F 21.0 °F 69% 30.14 in 10.0 mi NW 25.3 mph 33.4 mph N/A   Overcast
10:51 PM 28.9 °F 15.1 °F 19.9 °F 69% 30.15 in 9.0 mi NNW 23.0 mph 33.4 mph N/A   Overcast
11:51 PM 30.0 °F 18.7 °F 19.9 °F 66% 30.16 in 10.0 mi NNW 16.1 mph 28.8 mph N/A   Overcast